QPF
0.00 0.00 0.00 0.00 0.00 0.00 0.00 0.00 0.00 0.00 0.00 0.00 0.00 0.00 0.00 0.00 0.00 0.00 0.00 0.00 0.00 0.00 0.00 0.00 0.00 0.00 0.00 0.00 0.00 0.00 0.00 0.00 0.00 0.00 0.00 0.00 0.00 0.00 0.00 0.00 0.00 0.00 0.00
0.00 0.00 0.00 0.00 0.00 0.00 0.00 0.00 0.00 0.00 0.00 0.00 0.00 0.00 0.00 0.00 0.00 0.00 0.00 0.00 0.00 0.00 0.00 0.00 0.00 0.00 0.00 0.00 0.00 0.00 0.00 0.00 0.00 0.00 0.00 0.00 0.00 0.00 0.00 0.00 0.00 0.00 0.00
0.00 0.00 0.00 0.00 0.00 0.00 0.00 0.00 0.00 0.00 0.00 0.00 0.00 0.00 0.00 0.00 0.00 0.00 0.00 0.00 0.00 0.00 0.00 0.00 0.00 0.00 0.00 0.00 0.00 0.00 0.00 0.00 0.00 0.00 0.00 0.00 0.00 0.00 0.00 0.00 0.00 0.00 0.00
0.00 0.00 0.00 0.00 0.00 0.00 0.00 0.00 0.00 0.00 0.00 0.00 0.00 0.00 0.00 0.00 0.00 0.00 0.00 0.00 0.00 0.00 0.00 0.00 0.00 0.00 0.00 0.00 0.00 0.00 0.00 0.00 0.00 0.00 0.00 0.00 0.00 0.00 0.00 0.00 0.00 0.00 0.00
0.00 0.00 0.00 0.00 0.00 0.00 0.00 0.00 0.00 0.00 0.00 0.00 0.00 0.00 0.00 0.00 0.00 0.00 0.00 0.00 0.00 0.00 0.00 0.00 0.00 0.00 0.00 0.00 0.00 0.00 0.00 0.00 0.00 0.00 0.00 0.00 0.00 0.00 0.00 0.00 0.00 0.00 0.00
0.00 0.00 0.00 0.00 0.00 0.00 0.00 0.00 0.00 0.00 0.00 0.00 0.00 0.00 0.00 0.00 0.00 0.00 0.00 0.00 0.00 0.00 0.00 0.00 0.00 0.00 0.00 0.00 0.00 0.00 0.00 0.00 0.00 0.00 0.00 0.00 0.00 0.00 0.00 0.00 0.00 0.00 0.00
0.00 0.00 0.00 0.00 0.00 0.00 0.00 0.00 0.00 0.00 0.00 0.00 0.00 0.00 0.00 0.00 0.00 0.00 0.00 0.00 0.00 0.00 0.00 0.00 0.00 0.00 0.00 0.00 0.00 0.00 0.00 0.00 0.00 0.00 0.00 0.00 0.00 0.00 0.00 0.00 0.00 0.00 0.00
0.00 0.00 0.00 0.00 0.00 0.00 0.00 0.00 0.00 0.00 0.00 0.00 0.00 0.00 0.00 0.00 0.00 0.00 0.00 0.00 0.00 0.00 0.00 0.00 0.00 0.00 0.00 0.00 0.00 0.00 0.00 0.00 0.00 0.00 0.00 0.00 0.00 0.00 0.00 0.00 0.00 0.00 0.00
0.00 0.00 0.00 0.00 0.00 0.00 0.00 0.00 0.00 0.00 0.00 0.00 0.00 0.00 0.00 0.00 0.00 0.00 0.00 0.00 0.00 0.00 0.00 0.00 0.00 0.00 0.00 0.00 0.00 0.00 0.00 0.00 0.00 0.00 0.00 0.00 0.00 0.00 0.00 0.00 0.00 0.00 0.00
0.00 0.00 0.00 0.00 0.00 0.00 0.00 0.00 0.00 0.00 0.00 0.00 0.00 0.00 0.00 0.00 0.00 0.00 0.00 0.00 0.00 0.00 0.00 0.00 0.00 0.00 0.00 0.00 0.00 0.00 0.00 0.00 0.00 0.00 0.00 0.00 0.00 0.00 0.00 0.00 0.00 0.00 0.00
0.00 0.00 0.00 0.00 0.00 0.00 0.00 0.00 0.00 0.00 0.00 0.00 0.00 0.00 0.00 0.00 0.00 0.00 0.00 0.00 0.00 0.00 0.00 0.00 0.00 0.00 0.00 0.00 0.00 0.00 0.00 0.00 0.00 0.00 0.00 0.00 0.00 0.00 0.00 0.00 0.00 0.00 0.00
0.04 0.00 0.00 0.01 0.00 0.00 0.00 0.00 0.00 0.00 0.00 0.00 0.00 0.00 0.00 0.00 0.00 0.00 0.00 0.00 0.00 0.00 0.00 0.00 0.00 0.00 0.00 0.00 0.00 0.00 0.00 0.00 0.00 0.00 0.00 0.00 0.00 0.00 0.00 0.00 0.00 0.00 0.00
0.05 0.02 0.01 0.00 0.00 0.00 0.00 0.00 0.00 0.00 0.00 0.00 0.00 0.00 0.00 0.00 0.00 0.00 0.00 0.00 0.00 0.00 0.00 0.00 0.00 0.00 0.00 0.00 0.00 0.00 0.00 0.00 0.00 0.00 0.00 0.00 0.00 0.00 0.00 0.00 0.00 0.00 0.00
0.12 0.10 0.07 0.02 0.01 0.00 0.00 0.00 0.00 0.00 0.00 0.00 0.00 0.00 0.00 0.00 0.00 0.00 0.00 0.00 0.00 0.00 0.00 0.00 0.00 0.00 0.00 0.00 0.00 0.00 0.00 0.00 0.00 0.00 0.00 0.00 0.00 0.00 0.00 0.00 0.00 0.00 0.00
0.09 0.05 0.04 0.03 0.05 0.03 0.02 0.01 0.00 0.00 0.00 0.00 0.00 0.00 0.00 0.00 0.00 0.00 0.00 0.00 0.00 0.00 0.00 0.00 0.00 0.00 0.00 0.00 0.00 0.00 0.00 0.00 0.00 0.00 0.00 0.00 0.00 0.00 0.00 0.00 0.00 0.00 0.00
0.13 0.12 0.03 0.01 0.01 0.02 0.05 0.04 0.02 0.02 0.01 0.00 0.00 0.00 0.00 0.00 0.00 0.00 0.00 0.00 0.00 0.01 0.01 0.00 0.00 0.00 0.00 0.00 0.00 0.00 0.00 0.00 0.00 0.00 0.00 0.00 0.00 0.00 0.00 0.00 0.00 0.00 0.00
0.31 0.12 0.12 0.07 0.04 0.04 0.06 0.06 0.05 0.05 0.02 0.02 0.02 0.01 0.00 0.00 0.00 0.00 0.00 0.01 0.01 0.01 0.04 0.02 0.01 0.03 0.02 0.00 0.00 0.00 0.00 0.00 0.00 0.00 0.00 0.00 0.00 0.00 0.00 0.00 0.00 0.00 0.00
0.05 0.04 0.02 0.03 0.04 0.07 0.06 0.04 0.05 0.05 0.03 0.02 0.02 0.01 0.00 0.02 0.01 0.02 0.03 0.02 0.01 0.02 0.10 0.11 0.03 0.03 0.03 0.01 0.00 0.00 0.00 0.00 0.00 0.00 0.00 0.00 0.00 0.00 0.00 0.00 0.00 0.00 0.00
0.00 0.00 0.00 0.01 0.02 0.05 0.07 0.08 0.08 0.07 0.05 0.02 0.01 0.01 0.01 0.03 0.03 0.03 0.04 0.03 0.02 0.01 0.00 0.02 0.01 0.01 0.01 0.02 0.05 0.04 0.02 0.01 0.00 0.00 0.00 0.00 0.00 0.00 0.00 0.00 0.00 0.00 0.00
0.00 0.00 0.00 0.01 0.00 0.01 0.02 0.04 0.04 0.03 0.03 0.02 0.03 0.04 0.03 0.03 0.03 0.03 0.03 0.02 0.02 0.01 0.01 0.00 0.00 0.00 0.00 0.01 0.01 0.00 0.00 0.01 0.01 0.00 0.00 0.00 0.00 0.00 0.00 0.00 0.00 0.00 0.00
0.00 0.00 0.00 0.01 0.01 0.00 0.00 0.00 0.00 0.00 0.01 0.02 0.02 0.03 0.03 0.02 0.03 0.03 0.04 0.03 0.03 0.03 0.04 0.03 0.02 0.00 0.00 0.00 0.00 0.01 0.01 0.01 0.01 0.01 0.00 0.00 0.00 0.00 0.00 0.00 0.00 0.00 0.00
0.00 0.00 0.00 0.00 0.02 0.04 0.04 0.02 0.01 0.00 0.00 0.00 0.01 0.01 0.01 0.01 0.01 0.03 0.03 0.04 0.05 0.06 0.05 0.04 0.03 0.02 0.01 0.01 0.02 0.01 0.01 0.01 0.02 0.01 0.03 0.05 0.06 0.03 0.00 0.00 0.00 0.00 0.00
0.00 0.00 0.00 0.00 0.00 0.01 0.03 0.03 0.01 0.00 0.00 0.00 0.00 0.01 0.01 0.01 0.02 0.02 0.04 0.05 0.04 0.05 0.06 0.04 0.05 0.04 0.02 0.02 0.05 0.05 0.01 0.03 0.05 0.05 0.07 0.04 0.01 0.01 0.00 0.00 0.00 0.00 0.00
0.00 0.00 0.00 0.00 0.00 0.00 0.02 0.01 0.02 0.01 0.00 0.00 0.01 0.01 0.02 0.01 0.01 0.02 0.01 0.01 0.02 0.03 0.05 0.08 0.12 0.10 0.05 0.05 0.07 0.07 0.04 0.02 0.01 0.00 0.00 0.02 0.02 0.03 0.02 0.03 0.02 0.02 0.01
0.00 0.00 0.00 0.01 0.01 0.03 0.03 0.02 0.01 0.01 0.01 0.00 0.00 0.01 0.01 0.01 0.03 0.03 0.02 0.02 0.01 0.01 0.02 0.06 0.09 0.08 0.04 0.02 0.03 0.08 0.11 0.07 0.04 0.01 0.00 0.04 0.05 0.02 0.01 0.01 0.01 0.01 0.03
0.01 0.01 0.01 0.02 0.03 0.03 0.03 0.01 0.00 0.00 0.00 0.00 0.00 0.01 0.03 0.02 0.04 0.05 0.04 0.03 0.04 0.03 0.02 0.02 0.05 0.04 0.03 0.02 0.02 0.05 0.09 0.17 0.13 0.04 0.01 0.00 0.00 0.01 0.04 0.03 0.02 0.03 0.05
MSLP
1025.36 1025.85 1026.26 1026.49 1026.88 1027.20 1027.39 1027.74 1027.89 1028.32 1028.78 1029.25 1029.55 1029.55 1029.70 1029.74 1029.83 1029.95 1029.94 1029.80 1029.74 1029.69 1029.89 1030.10 1030.28 1030.66 1030.73 1030.95 1030.94 1031.01 1031.07 1031.30 1031.44 1031.59 1031.63 1031.76 1031.77 1031.87 1031.90 1031.87 1031.83 1031.57 1031.56
1025.33 1025.80 1026.32 1026.72 1027.18 1027.26 1027.57 1027.90 1028.02 1028.45 1028.98 1029.43 1029.87 1029.98 1029.98 1030.01 1030.06 1030.11 1030.23 1030.06 1030.11 1030.11 1030.02 1030.24 1030.29 1030.63 1030.80 1031.01 1031.09 1031.20 1031.27 1031.52 1031.67 1031.87 1031.93 1032.11 1032.09 1032.16 1032.17 1032.08 1031.92 1031.94 1031.91
1025.39 1025.76 1026.15 1026.80 1027.24 1027.39 1027.78 1028.16 1028.48 1028.71 1029.19 1029.64 1030.10 1030.33 1030.30 1030.24 1030.36 1030.34 1030.47 1030.49 1030.45 1030.40 1030.39 1030.39 1030.48 1030.59 1030.91 1031.01 1031.20 1031.25 1031.39 1031.68 1031.85 1032.00 1032.17 1032.28 1032.40 1032.40 1032.47 1032.26 1032.16 1032.07 1032.10
1025.28 1025.72 1026.07 1026.63 1027.07 1027.37 1027.78 1027.93 1028.52 1029.06 1029.40 1029.77 1030.34 1030.59 1030.65 1030.54 1030.62 1030.66 1030.70 1030.76 1030.83 1030.80 1030.77 1030.71 1030.66 1030.67 1030.86 1031.12 1031.22 1031.34 1031.41 1031.62 1031.72 1031.99 1032.12 1032.30 1032.46 1032.40 1032.33 1032.40 1032.41 1032.43 1032.30
1024.88 1025.45 1025.94 1026.42 1026.92 1027.39 1027.59 1027.78 1028.69 1028.84 1029.57 1030.13 1030.53 1030.77 1030.90 1030.86 1030.78 1030.79 1030.85 1030.99 1031.00 1031.00 1031.07 1030.92 1030.87 1030.79 1030.78 1031.00 1031.16 1031.14 1031.22 1031.39 1031.53 1031.79 1032.07 1032.17 1032.33 1032.38 1032.35 1032.35 1032.33 1032.38 1032.44
1024.63 1025.22 1025.87 1026.33 1026.85 1027.27 1027.76 1027.82 1028.68 1029.15 1029.48 1030.00 1030.68 1031.09 1031.18 1031.16 1031.05 1030.96 1030.86 1030.89 1031.06 1031.04 1031.04 1031.04 1031.04 1031.05 1030.94 1030.86 1030.94 1030.97 1030.99 1031.08 1031.15 1031.34 1031.70 1031.94 1032.11 1032.23 1032.29 1032.27 1032.28 1032.29 1032.28
1024.33 1024.95 1025.54 1026.12 1026.82 1027.25 1027.63 1027.97 1028.87 1029.35 1029.95 1030.34 1031.02 1031.50 1031.46 1031.37 1031.24 1031.05 1030.97 1030.95 1030.98 1030.93 1030.98 1030.96 1030.98 1031.03 1030.99 1030.80 1030.71 1030.74 1030.70 1030.73 1030.91 1031.07 1031.16 1031.46 1031.71 1031.84 1032.06 1032.14 1032.12 1032.14 1032.15
1023.96 1024.40 1025.01 1025.71 1026.44 1027.07 1027.57 1027.88 1028.49 1029.31 1029.85 1030.19 1030.68 1031.36 1031.63 1031.41 1030.99 1030.70 1030.86 1030.85 1030.86 1030.88 1030.85 1030.76 1030.78 1030.83 1030.83 1030.83 1030.69 1030.54 1030.46 1030.39 1030.42 1030.57 1030.83 1031.07 1031.31 1031.55 1031.60 1031.72 1031.83 1031.87 1031.83
1023.65 1023.88 1024.44 1025.11 1025.77 1026.34 1026.91 1027.35 1028.02 1028.57 1029.26 1029.95 1030.04 1030.32 1031.35 1031.15 1030.88 1030.38 1030.38 1030.59 1030.47 1030.58 1030.46 1030.44 1030.39 1030.43 1030.52 1030.56 1030.55 1030.36 1030.26 1030.24 1030.16 1030.15 1030.34 1030.55 1030.82 1031.02 1031.09 1031.22 1031.36 1031.42 1031.53
1023.06 1023.66 1023.96 1024.46 1024.97 1025.68 1026.21 1026.54 1027.06 1027.73 1028.43 1029.06 1029.83 1029.84 1030.01 1030.17 1030.51 1030.48 1030.16 1030.03 1030.24 1030.03 1029.91 1029.89 1029.87 1029.81 1029.85 1030.03 1030.05 1030.06 1029.97 1029.88 1029.86 1029.84 1029.79 1029.99 1030.17 1030.38 1030.58 1030.63 1030.72 1030.84 1030.99
1022.21 1022.65 1023.24 1023.86 1024.46 1025.10 1025.50 1025.95 1026.65 1027.11 1027.41 1028.00 1028.47 1029.00 1029.62 1029.80 1029.89 1030.13 1029.86 1029.70 1029.75 1029.33 1029.25 1029.19 1029.12 1029.19 1029.10 1029.09 1029.24 1029.32 1029.32 1029.39 1029.38 1029.37 1029.33 1029.35 1029.41 1029.55 1029.76 1029.97 1030.13 1030.16 1030.27
1021.34 1021.82 1022.27 1022.84 1023.52 1024.19 1024.78 1025.16 1025.53 1026.06 1026.57 1026.77 1027.10 1027.55 1027.85 1028.41 1028.82 1029.26 1029.56 1029.17 1029.15 1028.40 1028.27 1028.44 1028.54 1028.25 1028.18 1028.23 1028.16 1028.17 1028.36 1028.53 1028.68 1028.77 1028.83 1028.86 1028.85 1028.85 1028.95 1029.01 1029.22 1029.36 1029.42
1020.58 1021.01 1021.47 1022.14 1022.68 1023.06 1023.78 1024.33 1024.88 1025.34 1025.77 1026.23 1026.47 1026.50 1026.65 1026.71 1027.02 1027.61 1028.09 1028.26 1028.50 1027.96 1027.70 1027.44 1027.15 1027.15 1027.09 1027.12 1027.01 1027.06 1027.19 1027.39 1027.55 1027.74 1027.94 1028.05 1028.13 1028.24 1028.30 1028.36 1028.41 1028.49 1028.52
1019.59 1019.86 1020.50 1021.09 1021.58 1022.30 1022.85 1023.51 1023.98 1024.47 1024.98 1025.37 1025.79 1026.12 1026.16 1026.17 1026.35 1026.34 1026.58 1027.33 1027.57 1027.47 1027.14 1026.52 1026.13 1026.04 1026.02 1025.94 1025.79 1025.90 1026.05 1026.20 1026.37 1026.60 1026.79 1026.93 1027.05 1027.19 1027.36 1027.52 1027.61 1027.72 1027.80
1019.47 1019.81 1020.01 1020.40 1020.84 1021.56 1022.16 1022.62 1023.26 1023.64 1024.07 1024.47 1024.73 1025.00 1025.20 1025.30 1025.52 1025.59 1025.71 1025.96 1026.28 1026.54 1025.92 1025.49 1025.46 1024.75 1024.98 1025.20 1025.00 1025.15 1024.99 1024.87 1025.12 1025.34 1025.47 1025.62 1025.85 1026.10 1026.31 1026.44 1026.60 1026.72 1026.82
1019.15 1019.77 1020.11 1020.24 1020.40 1020.74 1021.39 1021.90 1022.41 1022.64 1023.27 1023.46 1023.72 1024.09 1024.20 1024.25 1024.57 1024.77 1024.86 1024.98 1025.31 1025.60 1025.37 1024.59 1024.21 1024.01 1024.09 1023.98 1023.97 1024.31 1024.11 1023.94 1023.94 1024.00 1024.20 1024.46 1024.52 1024.68 1024.94 1025.22 1025.40 1025.52 1025.68
1018.95 1019.17 1019.54 1019.80 1020.14 1020.41 1020.84 1021.41 1021.70 1022.05 1022.48 1022.52 1022.79 1023.11 1023.11 1023.20 1023.49 1023.66 1023.88 1024.07 1024.26 1024.40 1024.19 1022.89 1023.18 1023.35 1023.60 1023.36 1022.99 1023.11 1023.30 1023.37 1023.15 1022.94 1022.91 1023.12 1023.29 1023.44 1023.55 1023.89 1024.13 1024.32 1024.56
1018.43 1018.76 1019.09 1019.35 1019.63 1019.89 1020.25 1020.69 1020.97 1021.29 1021.47 1021.61 1021.69 1022.16 1022.22 1022.46 1022.59 1022.76 1022.82 1022.91 1022.82 1023.06 1023.17 1022.46 1022.15 1022.38 1022.40 1022.05 1021.82 1022.19 1021.95 1022.03 1022.04 1021.85 1021.82 1021.69 1021.96 1022.21 1022.41 1022.55 1022.76 1023.03 1023.25
1018.57 1018.19 1018.47 1018.87 1018.81 1019.04 1019.50 1019.79 1019.97 1020.23 1020.30 1020.32 1020.41 1020.76 1020.89 1021.32 1021.59 1021.70 1021.82 1021.62 1021.79 1021.68 1021.69 1021.59 1020.93 1020.99 1020.89 1021.03 1021.24 1021.18 1020.74 1020.93 1020.77 1020.51 1020.74 1020.95 1020.83 1021.02 1021.18 1021.35 1021.23 1021.38 1021.61
1018.87 1018.41 1017.72 1017.60 1017.58 1018.06 1018.63 1018.93 1019.14 1019.24 1019.33 1019.32 1019.37 1019.54 1019.59 1019.81 1020.01 1020.27 1020.57 1020.57 1020.59 1020.64 1020.54 1020.37 1020.07 1019.86 1019.94 1019.89 1020.24 1020.08 1019.96 1019.96 1019.55 1019.57 1019.31 1019.30 1019.47 1019.56 1019.39 1019.75 1019.88 1020.05 1019.98
1018.45 1018.27 1017.84 1017.39 1017.41 1017.54 1017.81 1018.01 1018.21 1018.29 1018.36 1018.29 1018.38 1018.38 1018.42 1018.46 1018.58 1018.74 1019.06 1019.32 1019.40 1019.38 1019.35 1019.20 1018.91 1018.77 1018.62 1018.93 1018.90 1018.53 1018.69 1018.31 1017.94 1018.34 1018.28 1018.28 1018.37 1018.51 1018.24 1018.31 1018.27 1018.55 1018.43
1018.34 1018.24 1018.12 1017.91 1017.33 1017.30 1017.33 1017.40 1017.53 1017.28 1017.26 1017.32 1017.33 1017.38 1017.45 1017.57 1017.76 1017.82 1017.93 1018.03 1018.17 1018.13 1018.06 1018.04 1017.66 1017.36 1017.21 1017.26 1017.37 1017.44 1017.29 1017.34 1016.99 1016.75 1017.33 1016.55 1017.03 1016.48 1015.99 1016.30 1016.03 1016.18 1016.61
1018.38 1018.31 1018.24 1018.09 1017.73 1017.23 1016.92 1016.69 1016.71 1017.01 1016.70 1016.46 1016.40 1016.46 1016.66 1016.81 1017.00 1017.01 1016.91 1016.90 1016.89 1016.97 1016.93 1016.74 1016.37 1015.98 1015.65 1015.34 1015.52 1015.78 1016.01 1015.78 1015.20 1015.26 1015.99 1015.25 1015.63 1015.26 1014.46 1014.62 1014.66 1014.76 1015.05
1018.01 1017.84 1017.72 1017.52 1017.44 1017.63 1017.14 1016.70 1016.46 1016.46 1016.27 1016.06 1015.87 1015.82 1015.83 1015.95 1015.98 1015.90 1015.82 1015.72 1015.50 1015.41 1015.49 1015.72 1015.41 1014.73 1014.49 1014.22 1014.34 1014.30 1014.14 1013.82 1013.52 1013.54 1014.28 1013.88 1013.91 1013.30 1013.14 1012.94 1012.79 1012.96 1013.10
1017.98 1017.54 1017.31 1016.87 1016.75 1018.17 1017.94 1017.37 1016.57 1016.04 1015.72 1015.50 1015.47 1015.52 1015.55 1015.48 1015.39 1015.27 1015.09 1014.70 1014.15 1013.70 1013.51 1013.70 1013.44 1013.19 1013.17 1013.03 1013.22 1013.45 1012.87 1012.94 1012.28 1012.24 1012.62 1012.53 1011.99 1011.81 1011.81 1011.45 1011.07 1011.07 1011.18
1018.00 1017.87 1017.94 1017.94 1018.18 1018.46 1018.32 1017.81 1016.97 1016.61 1016.04 1015.79 1015.65 1015.39 1015.29 1015.34 1015.50 1015.45 1015.28 1014.58 1013.42 1012.90 1012.61 1012.45 1012.41 1012.16 1012.07 1011.87 1012.37 1012.60 1012.14 1011.75 1011.33 1010.67 1010.69 1011.69 1011.03 1011.49 1010.85 1009.75 1009.56 1009.63 1009.77
Thickness
5658 5656 5655 5655 5652 5650 5651 5651 5651 5646 5640 5634 5631 5630 5629 5628 5627 5626 5624 5622 5622 5621 5618 5616 5614 5611 5610 5607 5606 5605 5604 5602 5600 5596 5594 5590 5587 5584 5581 5578 5576 5574 5570
5654 5652 5652 5650 5647 5646 5646 5646 5647 5643 5638 5632 5627 5626 5625 5624 5624 5623 5621 5619 5618 5617 5616 5614 5613 5609 5607 5605 5604 5603 5601 5598 5596 5594 5590 5587 5584 5581 5578 5576 5573 5569 5566
5649 5648 5649 5645 5643 5644 5641 5641 5640 5640 5635 5629 5624 5621 5622 5621 5620 5619 5617 5616 5614 5614 5612 5611 5610 5608 5605 5603 5602 5600 5599 5596 5593 5590 5587 5584 5581 5578 5575 5573 5570 5567 5563
5646 5645 5644 5641 5640 5641 5639 5641 5636 5634 5631 5626 5620 5618 5618 5618 5616 5615 5614 5613 5611 5610 5609 5607 5606 5605 5604 5601 5599 5597 5596 5594 5592 5588 5585 5582 5579 5577 5574 5570 5567 5563 5560
5646 5643 5640 5638 5636 5634 5636 5636 5631 5630 5625 5621 5616 5614 5614 5614 5614 5613 5611 5609 5608 5607 5606 5604 5603 5602 5602 5599 5597 5596 5594 5593 5590 5587 5583 5580 5577 5575 5572 5569 5566 5562 5558
5643 5640 5636 5635 5632 5631 5629 5631 5625 5623 5622 5618 5614 5610 5609 5610 5610 5610 5609 5607 5605 5605 5604 5603 5601 5599 5598 5598 5596 5594 5593 5591 5590 5587 5583 5579 5576 5573 5570 5567 5564 5561 5558
5641 5637 5634 5631 5627 5627 5627 5626 5619 5616 5614 5611 5606 5603 5603 5604 5605 5606 5606 5604 5602 5602 5602 5601 5601 5598 5597 5596 5595 5593 5592 5590 5588 5585 5583 5579 5576 5572 5568 5565 5562 5559 5556
5639 5636 5633 5629 5624 5622 5622 5622 5618 5612 5608 5607 5603 5597 5597 5599 5602 5605 5604 5602 5600 5599 5599 5599 5599 5598 5596 5594 5593 5592 5591 5589 5587 5585 5581 5578 5575 5571 5568 5565 5561 5558 5555
5635 5635 5632 5627 5625 5621 5620 5620 5616 5614 5609 5604 5603 5602 5591 5595 5596 5602 5602 5600 5599 5598 5597 5597 5597 5597 5596 5595 5592 5591 5590 5589 5587 5584 5581 5577 5574 5571 5568 5565 5561 5557 5553
5631 5628 5628 5625 5624 5620 5618 5617 5616 5613 5610 5608 5601 5601 5599 5598 5596 5600 5599 5600 5597 5597 5597 5596 5596 5596 5596 5594 5593 5591 5589 5588 5586 5583 5581 5577 5574 5571 5567 5564 5561 5557 5553
5631 5629 5626 5623 5620 5617 5617 5615 5612 5612 5612 5608 5605 5601 5595 5594 5594 5595 5601 5599 5595 5599 5598 5596 5596 5595 5596 5596 5594 5592 5590 5588 5586 5583 5580 5577 5575 5573 5569 5565 5561 5557 5554
5632 5631 5627 5624 5621 5618 5615 5614 5613 5611 5610 5609 5607 5604 5603 5599 5596 5593 5591 5595 5595 5601 5601 5599 5597 5597 5596 5595 5596 5596 5593 5589 5586 5583 5581 5577 5575 5573 5570 5567 5563 5559 5556
5631 5631 5630 5627 5624 5621 5617 5614 5612 5611 5608 5605 5603 5603 5603 5604 5601 5598 5596 5593 5594 5598 5600 5601 5603 5601 5600 5598 5597 5597 5595 5592 5589 5586 5582 5579 5576 5572 5570 5567 5564 5560 5557
5631 5631 5629 5628 5626 5621 5618 5614 5612 5610 5608 5605 5601 5598 5599 5600 5599 5600 5599 5593 5593 5591 5597 5602 5604 5604 5603 5601 5600 5599 5596 5595 5593 5589 5585 5581 5577 5574 5570 5567 5563 5560 5557
5623 5622 5624 5625 5625 5620 5617 5615 5612 5610 5608 5606 5604 5601 5598 5597 5596 5595 5594 5593 5591 5592 5602 5601 5599 5604 5604 5602 5600 5598 5598 5597 5596 5592 5588 5584 5579 5575 5572 5568 5564 5560 5557
5613 5612 5613 5616 5618 5618 5615 5612 5610 5609 5607 5607 5605 5602 5599 5599 5596 5595 5593 5591 5588 5586 5591 5601 5601 5601 5600 5603 5601 5598 5598 5597 5596 5594 5590 5586 5582 5578 5574 5570 5566 5561 5558
5606 5608 5611 5610 5612 5613 5610 5608 5608 5607 5605 5606 5605 5603 5602 5600 5597 5596 5593 5591 5588 5587 5586 5606 5599 5596 5596 5597 5598 5597 5595 5593 5593 5592 5592 5589 5585 5580 5577 5572 5567 5562 5558
5604 5604 5608 5609 5610 5609 5608 5607 5606 5605 5604 5605 5605 5602 5603 5600 5599 5597 5595 5595 5595 5590 5586 5592 5598 5594 5592 5596 5596 5592 5595 5595 5593 5592 5590 5590 5588 5583 5579 5575 5570 5565 5560
5596 5602 5602 5603 5606 5606 5605 5605 5605 5604 5605 5606 5607 5605 5605 5602 5599 5598 5596 5596 5593 5593 5590 5589 5596 5593 5594 5590 5586 5588 5592 5590 5590 5591 5587 5585 5585 5583 5580 5576 5574 5570 5565
5585 5591 5599 5602 5606 5605 5602 5602 5601 5602 5603 5605 5605 5605 5606 5605 5604 5601 5598 5597 5595 5592 5590 5590 5592 5592 5590 5589 5583 5584 5584 5580 5584 5583 5586 5586 5582 5581 5583 5579 5574 5570 5567
5577 5580 5586 5593 5596 5598 5599 5599 5599 5601 5601 5604 5603 5605 5606 5606 5605 5603 5599 5596 5594 5593 5591 5590 5591 5592 5592 5585 5584 5584 5579 5582 5585 5580 5579 5580 5578 5576 5578 5576 5575 5569 5567
5565 5568 5573 5578 5586 5590 5591 5590 5591 5598 5600 5601 5602 5602 5602 5600 5598 5596 5595 5594 5594 5592 5590 5588 5589 5591 5592 5589 5586 5582 5583 5579 5580 5581 5572 5580 5574 5581 5583 5578 5578 5575 5569
5551 5555 5559 5564 5571 5578 5581 5586 5588 5589 5594 5597 5598 5598 5597 5597 5594 5594 5593 5590 5590 5587 5585 5587 5589 5591 5592 5595 5589 5584 5580 5580 5585 5581 5571 5579 5570 5574 5580 5578 5577 5574 5567
5543 5548 5552 5556 5560 5558 5568 5574 5579 5582 5587 5590 5593 5593 5593 5591 5591 5590 5590 5591 5592 5590 5586 5581 5583 5589 5589 5590 5583 5582 5581 5583 5587 5585 5574 5576 5574 5578 5575 5576 5577 5574 5569
5531 5538 5542 5549 5551 5543 5552 5559 5566 5574 5579 5582 5582 5582 5582 5582 5583 5581 5583 5587 5592 5593 5590 5590 5590 5590 5587 5586 5581 5575 5581 5573 5581 5582 5577 5575 5580 5577 5574 5578 5577 5576 5573
5517 5522 5524 5526 5526 5529 5536 5543 5550 5556 5562 5565 5567 5570 5569 5568 5566 5565 5566 5574 5584 5586 5584 5585 5585 5587 5585 5583 5577 5568 5571 5572 5570 5572 5578 5566 5573 5563 5561 5577 5576 5570 5567